Hourly Weather Kozorizy

Today, 27 October, Tuesday

Time Temperature Precipitation Wind Pressure Humidity
00:00 +11°C° 0 mm 4 mps 755 mmHg 64%
01:00 +10°C° 0 mm 4 mps 755 mmHg 64%
02:00 +10°C° 0 mm 4 mps 755 mmHg 65%
03:00 +11°C° 0 mm 4 mps 754 mmHg 62%
04:00 +10°C° 0 mm 4 mps 754 mmHg 64%
05:00 +9°C° 0 mm 3 mps 754 mmHg 67%
06:00 +10°C° 0 mm 4 mps 754 mmHg 67%
07:00 +10°C° 0 mm 4 mps 754 mmHg 66%
08:00 +9°C° 0 mm 5 mps 754 mmHg 66%
09:00 +12°C° 0 mm 5 mps 754 mmHg 62%
10:00 +13°C° 0 mm 5 mps 754 mmHg 59%
11:00 +14°C° 0 mm 5 mps 754 mmHg 56%
12:00 +15°C° 0 mm 5 mps 754 mmHg 54%
13:00 +16°C° 0 mm 5 mps 754 mmHg 53%
14:00 +17°C° 0 mm 5 mps 754 mmHg 51%
15:00 +15°C° 0 mm 5 mps 754 mmHg 55%
16:00 +14°C° 0 mm 4 mps 754 mmHg 59%
17:00 +13°C° 0 mm 3 mps 754 mmHg 63%
18:00 +12°C° 0 mm 3 mps 754 mmHg 64%
19:00 +12°C° 0 mm 3 mps 755 mmHg 65%
20:00 +11°C° 0 mm 3 mps 755 mmHg 67%
21:00 +11°C° 0 mm 3 mps 755 mmHg 67%
22:00 +11°C° 0 mm 3 mps 755 mmHg 68%
23:00 +10°C° 0 mm 3 mps 755 mmHg 68%

Tomorrow, 28 October, Wednesday

Time Temperature Precipitation Wind Pressure Humidity
00:00 +10°C° 0 mm 4 mps 756 mmHg 62%
01:00 +10°C° 0 mm 4 mps 756 mmHg 63%
02:00 +8°C° 0 mm 4 mps 756 mmHg 65%
03:00 +8°C° 0 mm 4 mps 756 mmHg 66%
04:00 +8°C° 0 mm 4 mps 756 mmHg 67%
05:00 +7°C° 0 mm 4 mps 756 mmHg 68%
06:00 +7°C° 0 mm 4 mps 756 mmHg 68%
07:00 +8°C° 0 mm 4 mps 757 mmHg 68%
08:00 +8°C° 0 mm 5 mps 757 mmHg 69%
09:00 +9°C° 0 mm 5 mps 757 mmHg 64%
10:00 +11°C° 0 mm 4 mps 757 mmHg 60%
11:00 +12°C° 0 mm 4 mps 757 mmHg 56%
12:00 +13°C° 0 mm 4 mps 756 mmHg 54%
13:00 +14°C° 0 mm 4 mps 756 mmHg 52%
14:00 +14°C° 0 mm 4 mps 756 mmHg 50%
15:00 +13°C° 0 mm 4 mps 756 mmHg 54%
16:00 +12°C° 0 mm 4 mps 756 mmHg 57%
17:00 +11°C° 0 mm 3 mps 756 mmHg 60%
18:00 +10°C° 0 mm 3 mps 756 mmHg 62%
19:00 +10°C° 0 mm 3 mps 756 mmHg 63%
20:00 +9°C° 0 mm 3 mps 756 mmHg 64%
21:00 +9°C° 0 mm 3 mps 756 mmHg 63%
22:00 +8°C° 0 mm 3 mps 756 mmHg 63%
23:00 +8°C° 0 mm 3 mps 756 mmHg 62%

Day after tomorrow, 29 October, Thursday

Time Temperature Precipitation Wind Pressure Humidity
00:00 +7°C° 0 mm 3 mps 755 mmHg 61%
01:00 +7°C° 0 mm 3 mps 755 mmHg 61%
02:00 +7°C° 0 mm 3 mps 755 mmHg 61%
03:00 +5°C° 0 mm 3 mps 755 mmHg 62%
04:00 +5°C° 0 mm 3 mps 755 mmHg 63%
05:00 +5°C° 0 mm 3 mps 755 mmHg 64%
06:00 +5°C° 0 mm 3 mps 755 mmHg 62%
07:00 +5°C° 0 mm 3 mps 755 mmHg 61%
08:00 +7°C° 0 mm 3 mps 755 mmHg 60%
09:00 +8°C° 0 mm 3 mps 755 mmHg 56%
10:00 +10°C° 0 mm 3 mps 755 mmHg 53%
11:00 +11°C° 0 mm 3 mps 755 mmHg 49%
12:00 +12°C° 0 mm 3 mps 755 mmHg 49%
13:00 +13°C° 0 mm 2 mps 755 mmHg 48%
14:00 +14°C° 0 mm 2 mps 754 mmHg 48%
15:00 +13°C° 0 mm 2 mps 754 mmHg 52%
16:00 +12°C° 0 mm 2 mps 754 mmHg 56%
17:00 +10°C° 0 mm 2 mps 755 mmHg 59%
18:00 +9°C° 0 mm 2 mps 755 mmHg 62%
19:00 +9°C° 0 mm 2 mps 755 mmHg 64%
20:00 +8°C° 0 mm 2 mps 755 mmHg 66%
21:00 +9°C° 0 mm 1 mps 755 mmHg 68%
22:00 +8°C° 0 mm 1 mps 755 mmHg 70%
23:00 +8°C° 0 mm 1 mps 755 mmHg 72%

30 October, Friday

Time Temperature Precipitation Wind Pressure Humidity
00:00 +8°C° 0 mm 1 mps 755 mmHg 73%
01:00 +7°C° 0 mm 0 mps 755 mmHg 75%
02:00 +6°C° 0 mm 0 mps 755 mmHg 77%
03:00 +6°C° 0 mm 0 mps 755 mmHg 78%
04:00 +6°C° 0 mm 0 mps 755 mmHg 79%
05:00 +7°C° 0 mm 1 mps 755 mmHg 80%
06:00 +7°C° 0 mm 1 mps 755 mmHg 79%
07:00 +8°C° 0 mm 1 mps 756 mmHg 77%
08:00 +8°C° 0 mm 1 mps 756 mmHg 75%
09:00 +10°C° 0 mm 1 mps 756 mmHg 70%
10:00 +12°C° 0 mm 1 mps 756 mmHg 64%
11:00 +13°C° 0 mm 1 mps 756 mmHg 59%
12:00 +14°C° 0 mm 1 mps 756 mmHg 58%
13:00 +15°C° 0 mm 2 mps 756 mmHg 57%
14:00 +14°C° 0 mm 3 mps 756 mmHg 56%
15:00 +14°C° 0 mm 2 mps 756 mmHg 62%
16:00 +13°C° 0 mm 2 mps 756 mmHg 69%
17:00 +12°C° 0 mm 2 mps 756 mmHg 75%
18:00 +11°C° 0 mm 1 mps 757 mmHg 79%
19:00 +11°C° 0 mm 1 mps 757 mmHg 82%
20:00 +10°C° 0 mm 1 mps 757 mmHg 85%
21:00 +10°C° 0 mm 1 mps 757 mmHg 86%
22:00 +10°C° 0 mm 1 mps 757 mmHg 88%
23:00 +9°C° 0 mm 2 mps 758 mmHg 89%

31 October, Saturday

Time Temperature Precipitation Wind Pressure Humidity
00:00 +9°C° 0 mm 2 mps 758 mmHg 90%
01:00 +8°C° 0 mm 2 mps 758 mmHg 90%
02:00 +8°C° 0 mm 2 mps 758 mmHg 90%
03:00 +8°C° 0 mm 2 mps 758 mmHg 90%
04:00 +7°C° 0 mm 2 mps 758 mmHg 91%
05:00 +7°C° 0 mm 2 mps 758 mmHg 91%
06:00 +9°C° 0 mm 1 mps 758 mmHg 89%
07:00 +9°C° 0 mm 1 mps 758 mmHg 87%
08:00 +9°C° 0 mm 1 mps 758 mmHg 86%

1 November, Sunday

Time Temperature Precipitation Wind Pressure Humidity
Show more